Regional Weather Roundup
Issued by NWS Jackson, KY

Home | Current Version | Previous Version | Graphics & Text | Print | Product List | Glossary On
Versions: 1 2 3 4 5 6 7 8 9 10 11 12 13 14 15 16 17 18 19 20 21 22 23 24 25 26 27 28 29 30 31 32 33 34 35 36 37 38 39 40 41 42 43 44 45 46 47 48 49 50
000
ASUS43 KJKL 020210
RWRJKL

EAST KENTUCKY HOURLY WEATHER ROUNDUP
NATIONAL WEATHER SERVICE JACKSON KY
1000 PM EDT FRI AUG 01 2014

NOTE: "FAIR" INDICATES FEW OR NO CLOUDS BELOW 12,000 FEET WITH
NO SIGNIFICANT WEATHER AND/OR OBSTRUCTIONS TO VISIBILITY.

* THESE REPORTS ARE NOT UNDER NWS QUALITY CONTROL AND MAY NOT
  REPORT WEATHER SUCH AS PRECIPITATION AND FOG.

KYZ079-080-083-085-087-088-110-112-115-119-120-020300
...EASTERN KENTUCKY...

CITY           SKY/WX    TMP DP  RH WIND       PRES   REMARKS
JACKSON        CLOUDY    73  64  73 CALM      30.08R
LONDON         MOCLDY    73  64  73 CALM      30.08R
SOMERSET*      CLEAR     70  64  83 CALM      30.08R
MONTICELLO*    CLEAR     68  66  93 CALM      30.08R
WILLIAMSBURG*    N/A     68  68 100 NE7       30.09
MIDDLESBORO*   MOCLDY    71  66  85 CALM      30.09R
HARLAN APT*    CLEAR     68  63  83 MISG      30.10S
BLACK MTN*       N/A     61  59  94 S2          N/A
PIKEVILLE APT* PTCLDY    73  61  64 SE6       30.11R
BIG SANDY*     PTCLDY    71  64  80 E3        30.09R
MOREHEAD APT*    N/A     73  64  73 E5        30.10R
$$

KYZ035-036-041-042-044-050-067-078-099-020300
...CENTRAL KENTUCKY...

CITY           SKY/WX    TMP DP  RH WIND       PRES   REMARKS
MT STERLING*   PTCLDY    70  64  83 CALM      30.09R
FLEMING/MASON* CLEAR     73  63  68 E3        30.09R
DANVILLE*      CLOUDY    70  64  83 CALM      30.08R
RICHMOND*      PTCLDY    73  63  68 CALM      30.07R
LEXINGTON      PTCLDY    73  61  65 CALM      30.08R
FRANKFORT      CLEAR     67  62  84 CALM      30.06R
$$

KYZ091>093-OHZ055-061-077-WVZ005-015-034-035-042-020300
...SOUTHERN OHIO/WEST VIRGINIA...

CITY           SKY/WX    TMP DP  RH WIND       PRES   REMARKS
COVINGTON      PTCLDY    68  60  75 CALM      30.07R
COLUMBUS       MOCLDY    76  63  64 NE5       30.08R
DAYTON         PTCLDY    72  62  71 NE6       30.10R
WILMINGTON     CLEAR     66  62  87 CALM      30.08R
HUNTINGTON     HVY RAIN  69  67  93 SW8       30.08R VSB 1
CHARLESTON     PTCLDY    70  67  90 NE6       30.09R
PINEVILLE*     CLEAR     65  63  94 MISG      30.20R
BECKLEY        PTCLDY    63  55  75 SE6       30.18R
BLUEFIELD      CLOUDY    63  56  78 SE8       30.20R
$$

VAZ002-007-008-TNZ017-027-036-066-071-020300
...SOUTHWEST VIRGINIA/EAST TENNESSEE...

CITY           SKY/WX    TMP DP  RH WIND       PRES   REMARKS
WISE*          CLEAR     64  55  72 CALM      30.18R
JONESVILLE*      N/A     68  64  88 CALM      30.12R
ABINGDON*      CLEAR     67  59  76 E9        30.16R
BRISTOL        PTCLDY    68  59  73 CALM      30.12R
KNOXVILLE      MOCLDY    76  67  73 CALM      30.04R
OAK RIDGE      MOCLDY    76  67  73 CALM      30.06R
CROSSVILLE     CLOUDY    71  64  78 CALM      30.11R
NASHVILLE      MOCLDY    79  63  57 CALM      30.04R
$$

...KEY TO REMARKS...
VSB - VISIBILITY IN MILES
WCI - WIND CHILL INDEX
HX  - HEAT INDEX

$$


USA.gov is the U.S. government's official web portal to all federal, state and local government web resources and services.